Regional Weather Roundup
Issued by NWS Sioux Falls, SD

Home | Current Version | Previous Version | Graphics & Text | Print | Product List | Glossary On
Versions: 1 2 3 4 5 6 7 8 9 10 11 12 13 14 15 16 17 18 19 20 21 22 23 24 25 26 27 28 29 30 31 32 33 34 35 36 37 38 39 40 41 42 43 44 45 46 47 48 49 50
000
ASUS43 KFSD 220702
RWRFSD

WEATHER ROUNDUP FOR SE SOUTH DAKOTA/SW MINNESOTA/NW IOWA
NATIONAL WEATHER SERVICE SIOUX FALLS SD
200 AM CDT FRI SEP 22 2017

NOTE: "FAIR" INDICATES FEW OR NO CLOUDS BELOW 12,000 FEET WITH NO
SIGNIFICANT WEATHER AND OR OBSTRUCTIONS TO VISIBILITY.


SDZ038>040-050-052>070-220800-
SOUTHEAST SOUTH DAKOTA

CITY           SKY/WX    TMP DP  RH WIND       PRES   REMARKS
BROOKINGS      CLEAR     73  71  93 SE14      29.71F
CHAMBERLAIN    CLEAR     74  71  88 SE12      29.60F
HURON          CLEAR     74  71  91 SE9       29.62F
MADISON        FAIR      77  77 100 S18G26    29.71S
MITCHELL       CLEAR     79  72  79 S20G28    29.64S
SIOUX FALLS    CLEAR     80  73  79 S21       29.72S
WINNER         FAIR      77  66  68 SE21G29   29.59S
YANKTON        CLEAR     80  73  79 S22G29    29.69S
$$

MNZ071-072-080-081-089-090-097-098-220800-
SOUTHWEST MINNESOTA

CITY           SKY/WX    TMP DP  RH WIND       PRES   REMARKS
FAIRMONT       CLEAR     75  70  84 S14       29.82S
JACKSON        CLEAR     73  68  83 S12       29.83R
LUVERNE        CLEAR     72  70  94 S8        29.76S
MARSHALL       CLEAR     74  71  91 S10       29.72F
MONTEVIDEO     CLEAR     72  72 100 S7        29.72F
PIPESTONE      CLEAR     73  72  94 S9        29.76S
REDWOOD FALLS  CLEAR     74  69  85 SE12G20   29.75F
TRACY          CLEAR     75  73  91 S14       29.75S
WORTHINGTON    CLEAR     74  71  91 S14G21    29.80S
$$

IAZ001>003-012>014-020>022-031-032-NEZ013-014-SDZ071-220800-
NORTHWEST IOWA

CITY           SKY/WX    TMP DP  RH WIND       PRES   REMARKS
CHEROKEE       CLEAR     75  73  94 S10       29.81R
DENISON        PTCLDY    77  72  83 S16       29.84S
ESTHERVILLE    CLEAR     74  71  91 S12       29.82S
LE MARS        CLEAR     79  73  83 S15       29.76S
ORANGE CITY    CLEAR     79  75  89 SE7       29.79R
SHELDON        CLEAR     75  73  94 S10G17    29.78R
SIOUX CITY     CLEAR     78  74  87 SE12      29.76S
SPENCER        CLEAR     75  71  87 S12       29.81S
STORM LAKE     PTCLDY    77  72  83 S17       29.83S
$$

ABBREVIATIONS USED IN REMARKS
   TC - TEMPERATURE IN CELSIUS
  WCI - WIND CHILL INDEX
   HX - HEAT INDEX
  VSB - VISIBILITY





USA.gov is the U.S. government's official web portal to all federal, state and local government web resources and services.